#timestamp,LO_Frequency,Hit,StdDev 
1561226415.7,286046992.9,P
1561226435.5,286046996.4,P
1561226455.3,286046993.7,Y
1561226475.2,286046999.9,P
1561226495.0,286046999.8,N
1561226495.9,286046999.8,N
1561226515.7,286047001.4,N
1561226535.6,286047003.9,N
1561226555.4,286047003.4,N
1561226575.2,286047011.9,Y
1561226595.1,286047003.2,P
1561226596.0,286047003.2,N
1561226615.8,286047003.2,N
1561226635.6,286047003.4,N
1561226655.5,286047003.6,Y
1561226675.3,286047000.2,P
1561226695.1,286047000.2,N
1561226715.9,286047002.4,N
1561226735.7,286047002.6,N
1561226755.5,286047002.8,N
1561226775.4,286047005.5,Y
1561226795.2,286047001.1,P
1561226815.0,286046999.0,N
1561226816.0,286046999.0,N
1561226835.8,286046997.3,N
1561226855.6,286046997.3,N
1561226875.4,286046998.0,N
1561226895.3,286046996.5,N
1561226915.1,286046995.0,N
1561226935.9,286046993.9,Y
1561226955.7,286046994.0,P
1561226975.5,286046994.4,N
1561226995.3,286046992.4,P
1561227015.2,286046991.8,Y
1561227035.0,286046999.0,P
1561227035.9,286046999.0,N
1561227055.8,286047000.7,N
1561227075.6,286047011.9,Y
1561227095.4,286046997.5,P
1561227115.3,286046997.7,P
1561227135.1,286046997.7,P
1561227136.0,286046997.7,Y
1561227155.8,286047001.1,P
1561227175.7,286047000.4,N
1561227195.5,286047001.2,N
1561227215.3,286046998.2,N
1561227235.2,286046999.7,N
1561227255.9,286047002.0,N
1561227275.7,286047000.5,N
1561227295.6,286046998.6,N
1561227315.4,286047001.2,N
1561227335.2,286047003.8,N
1561227355.1,286047004.2,N
1561227356.0,286047004.2,N
1561227375.8,286047002.5,N
1561227395.6,286047000.5,N
1561227415.5,286046998.8,N
1561227435.3,286046996.0,N
1561227455.1,286046992.3,Y
1561227475.9,286046993.4,P
1561227495.7,286046994.6,N
1561227515.5,286046992.3,N
1561227535.4,286046992.8,N
1561227555.2,286046989.3,Y
1561227575.0,286046992.0,P
1561227575.9,286046992.0,P
1561227595.8,286046991.7,P
1561227615.6,286046994.8,Y
1561227635.4,286047000.2,P
1561227655.3,286047001.7,N
1561227675.1,286047001.6,N
1561227676.0,286047001.6,N
1561227695.8,286047005.7,N
1561227715.7,286047004.6,N
1561227735.5,286047007.5,N
1561227755.3,286047006.6,N
1561227775.2,286047006.6,N
1561227795.9,286047008.9,N
1561227815.7,286047006.7,N
1561227835.6,286047007.2,N
1561227855.4,286047005.7,N
1561227875.2,286047004.2,N
1561227895.1,286047005.9,N
1561227896.0,286047005.9,N
1561227915.8,286047004.8,N
1561227935.6,286047007.6,N
1561227955.5,286047006.9,N
1561227975.3,286047007.6,N
1561227995.1,286047006.3,N
1561228015.9,286047006.4,N
1561228035.7,286047008.2,N
1561228055.5,286047010.6,Y
1561228075.4,286047005.1,P
1561228095.2,286047004.8,P
1561228115.0,286047005.1,P
1561228115.9,286047005.1,Y
1561228135.8,286047000.0,P
1561228155.6,286047002.3,N
1561228175.4,286047002.0,N
1561228195.3,286047002.2,N
1561228215.1,286047000.3,N
1561228216.0,286047000.3,N
1561228235.8,286046999.3,N
1561228255.7,286046996.9,N
1561228275.5,286046996.4,N
1561228295.3,286046993.6,N
1561228315.2,286046994.4,N
1561228335.9,286046992.3,N
1561228355.7,286046993.1,N
1561228375.6,286046996.8,N
1561228395.4,286046993.9,N
1561228415.2,286046990.1,N
1561228435.1,286046990.6,N
1561228436.0,286046990.6,N
1561228455.8,286046991.5,N
1561228475.6,286046993.2,N
1561228495.5,286046992.7,N
1561228515.3,286046993.4,N
1561228535.1,286046995.8,N
1561228555.9,286046995.4,N
1561228575.7,286046996.1,N
1561228595.5,286046996.0,N
1561228615.3,286046995.8,N
1561228635.2,286046994.4,N
1561228655.0,286046992.1,N
1561228655.9,286046992.1,N
1561228675.7,286046991.8,N
1561228695.6,286046994.4,N
1561228715.4,286046997.6,N
1561228735.2,286046992.2,N
1561228755.1,286046989.6,Y
1561228756.0,286046989.6,P
1561228775.8,286046994.5,N
1561228795.6,286046993.2,N
1561228815.5,286046991.6,Y
1561228835.3,286046994.9,P
1561228855.2,286046995.1,P
1561228875.9,286046995.3,P
1561228895.7,286046999.6,N
1561228915.6,286046998.5,N
1561228935.4,286047000.8,N
1561228955.2,286047000.6,N
1561228975.0,286047002.1,N
1561228976.0,286047002.1,N
1561228995.8,286047002.5,N
1561229015.6,286047000.1,N
1561229035.4,286047000.3,N
1561229055.3,286047001.0,N
1561229075.1,286046998.5,N
1561229095.8,286046998.7,N
1561229115.7,286046999.2,N
1561229135.5,286046995.3,N
1561229155.3,286046997.3,N
1561229175.2,286046998.3,N
1561229195.0,286046996.5,N
1561229195.9,286046996.5,N
1561229215.7,286046999.3,N
1561229235.6,286046998.5,N
1561229255.4,286046998.2,N
1561229275.2,286046999.0,N
1561229295.1,286046998.6,N
1561229296.0,286046998.6,N
1561229315.8,286046998.3,N
1561229335.6,286047001.0,N
1561229355.5,286046998.3,N
1561229375.3,286047000.6,N
1561229395.1,286046998.1,N
1561229415.9,286047001.0,N
1561229435.7,286046998.4,N
1561229455.5,286046996.7,N
1561229475.4,286046999.5,N
1561229495.2,286046998.5,N
1561229515.0,286047000.4,N
1561229515.9,286047000.4,N
1561229535.8,286046999.9,N
1561229555.6,286047002.5,N
1561229575.4,286046999.8,N
1561229595.3,286047002.3,N
1561229615.1,286046999.7,N
1561229635.8,286047000.7,N
1561229655.7,286046999.9,N
1561229675.5,286047002.7,N
1561229695.3,286047002.3,N
1561229715.2,286047002.7,N
1561229735.0,286047001.4,N
1561229735.9,286047001.4,N
1561229755.7,286047004.0,N
1561229775.6,286047004.2,N
1561229795.4,286046999.7,N
1561229815.2,286047001.7,N
1561229835.1,286047003.7,N
1561229836.0,286047003.7,N
1561229855.8,286047002.2,N
1561229875.6,286047003.6,N
1561229895.5,286047001.3,N
1561229915.3,286047005.5,N
1561229935.1,286047004.8,N
1561229955.9,286047005.8,N
1561229975.7,286047007.0,Y
1561229995.5,286047004.5,P
